This is the latest recevied weather packets stored in our database for station/object EA1HTW-1. If no packets are shown the sender has not sent any weather packets the latest 10 day(s).
| Time | Temp. | Humidity | Pressure | Rain* | Wind** | Luminosity | Snow |
|---|---|---|---|---|---|---|---|
| 1777827562 | 13.89° C | 85% | 984.6 hPa | 0 mm | - | - | - |
| 1777826963 | 13.89° C | 85% | 984.4 hPa | 0.25 mm | - | - | - |
| 1777825162 | 13.89° C | 85% | 984.7 hPa | 0.51 mm | - | - | - |
| 1777824563 | 14.44° C | 85% | 984.4 hPa | 0.51 mm | - | - | - |
| 1777822767 | 13.89° C | 80% | 984.8 hPa | 0 mm | - | - | - |
| 1777822164 | 13.89° C | 80% | 984.7 hPa | 0 mm | - | - | - |
| 1777820962 | 14.44° C | 80% | 984.9 hPa | 0 mm | - | - | - |
| 1777819764 | 13.33° C | 82% | 984.9 hPa | 0 mm | - | - | - |
| 1777819164 | 13.33° C | 84% | 984.9 hPa | 0 mm | - | - | - |
| 1777818563 | 13.33° C | 83% | 984.9 hPa | 0 mm | - | - | - |
| 1777817364 | 13.33° C | 82% | 984.8 hPa | 0 mm | - | - | - |
| 1777816763 | 13.33° C | 84% | 985 hPa | 0 mm | - | - | - |
| 1777816162 | 13.89° C | 85% | 985 hPa | 0 mm | - | - | - |
| 1777814963 | 13.89° C | 84% | 984.9 hPa | 0 mm | - | - | - |
| 1777814363 | 14.44° C | 83% | 984.7 hPa | 0 mm | - | - | - |
| 1777813764 | 15° C | 82% | 984.7 hPa | 0 mm | - | - | - |
| 1777813162 | 14.44° C | 80% | 984.9 hPa | 0 mm | - | - | - |
| 1777812563 | 15° C | 75% | 984.8 hPa | 0 mm | - | - | - |
| 1777811362 | 15.56° C | 81% | 984.9 hPa | 0 mm | - | - | - |
| 1777810763 | 15° C | 78% | 985.1 hPa | 0 mm | - | - | - |
| 1777810163 | 15° C | 79% | 985 hPa | 0 mm | - | - | - |
| 1777809563 | 14.44° C | 85% | 985.4 hPa | 0.25 mm | - | - | - |
| 1777808962 | 13.89° C | 86% | 985.4 hPa | 0.51 mm | - | - | - |
| 1777808362 | 12.22° C | 89% | 985.6 hPa | 0.51 mm | - | - | - |
| 1777807761 | 12.78° C | 94% | 985.6 hPa | 0.51 mm | - | - | - |
* Rain latest hour (hover to see other rain measurements)
** Current wind speed in m/s (hover to see current wind gust speed)